[[{"header":{"parameterUnit":"m.s-1","parameterCategory":1,"la1":30.2991,"la2":30.254,"lo1":-89.0895,"lo2":-89.0444,"dy":0.0017,"dx":0.0017,"nx":28,"ny":28,"refTime":"2023-09-28T09:00:00:Z","depth":0,"parameterNumber":2,"parameterNumberName":"U-component_of_WINDS"},"data":[0,0,0,0,0,0,0,0,0,0,0,0,0,0,0,0,0,0,0,0,0,0,0,0,0,0,0,0,0,0,0,0,0,0,0,0,0,0,0,0,0,0,0,0,0,0,0,0,0,0,0,0,0,0,0,0,0,0,-4.0524,-4.0524,0,-4.0486,-4.0486,-4.0485,-4.0341,-4.0338,-4.0334,-4.0331,-4.0295,-4.0297,-4.03,0,0,0,0,0,0,0,0,0,0,0,0,0,-4.0476,-4.0478,-4.0524,-4.0524,-4.0523,-4.0486,-4.0486,-4.0485,-4.0342,-4.0338,-4.0334,-4.033,-4.0295,-4.0297,-4.03,0,0,0,0,0,0,0,0,0,0,0,0,0,-4.0474,-4.0479,-4.0524,-4.0447,-4.044,-4.0486,-4.0486,-4.0485,-4.0342,-4.0337,-4.0333,-4.0328,-4.0294,-4.0297,-4.03,-4.0419,0,0,-4.031,-4.0311,0,0,0,0,0,0,0,0,-4.0474,-4.0476,-4.0459,-4.0452,-4.0444,-4.0413,-4.0455,-4.0463,-4.0344,-4.038,-4.0331,-4.0325,-4.0339,-4.0338,-4.0342,-4.0417,-4.0416,-4.031,-4.0312,-4.0313,-4.0314,0,0,0,0,0,0,0,-4.0475,-4.0477,-4.0509,-4.0459,-4.045,-4.0416,-4.041,-4.0456,-4.0388,-4.0376,-4.0365,-4.0363,-4.0334,-4.0339,-4.034,-4.0415,-4.031,-4.0313,-4.0315,-4.0316,-4.0589,-4.0594,0,0,0,0,0,0,-4.0485,-4.0478,-4.051,-4.0508,-4.0447,-4.0421,-4.0414,-4.0428,-4.0387,-4.0375,-4.0367,-4.0356,-4.0336,-4.0336,-4.0338,-4.0476,-4.0313,-4.0316,-4.0318,-4.0584,-4.059,-4.0596,0,0,0,0,0,0,-4.0485,-4.0489,-4.0512,-4.049,-4.049,-4.0427,-4.0444,-4.043,-4.0435,-4.038,-4.0367,-4.0385,-4.0332,-4.0334,-4.04,-4.0473,-4.0318,-4.0321,-4.0577,-4.0586,-4.0593,-4.0752,0,0,0,0,0,0,-4.0484,-4.049,-4.0533,-4.0492,-4.0492,-4.0574,-4.0448,-4.0433,-4.0441,-4.0426,-4.0393,-4.0383,-4.0328,-4.0396,-4.0404,-4.0474,-4.0323,-4.0571,-4.0581,-4.0591,-4.074,-4.0765,-4.0786,0,0,0,0,0,-4.0483,-4.058,-4.0536,-4.0541,-4.0544,-4.0578,-4.0578,-4.0513,-4.0447,-4.0491,-4.0456,-4.0384,-4.0464,-4.0404,-4.0411,-4.0484,-4.0566,-4.0578,-4.059,-4.073,-4.076,-4.0785,0,0,0,0,0,0,-4.0632,-4.0573,-4.0524,-4.061,-4.06,-4.0554,-4.0607,-4.0546,-4.0555,-4.0541,-4.0461,-4.0455,-4.0534,-4.0515,-4.045,-4.0598,-4.0503,-4.0517,-4.0607,-4.0635,-4.0657,-4.066,-4.0326,0,0,0,0,0,-4.0675,-4.0706,-4.0653,-4.0734,-4.0732,-4.0671,-4.0683,-4.0634,-4.062,-4.0616,-4.0585,-4.0576,-4.0599,-4.0616,-4.0634,-4.0737,-4.0729,-4.0791,-4.0814,-4.0832,-4.0846,-4.0901,-4.0929,-4.0635,-4.0635,-4.0635,0,0,-4.0764,-4.0735,-4.076,-4.0764,-4.075,-4.0786,-4.0668,-4.071,-4.0736,-4.0622,-4.0683,-4.0661,-4.0646,-4.0732,-4.0769,-4.0719,-4.0925,-4.0848,-4.0863,-4.0866,-4.0917,-4.0944,-4.0969,-4.0644,-4.0642,-4.0641,0,0,-4.0944,-4.0925,-4.0991,-4.0981,-4.0962,-4.0921,-4.0937,-4.09,-4.0881,-4.0941,-4.0857,-4.0888,-4.0929,-4.0922,-4.0924,-4.1105,-4.104,-4.1113,-4.1232,-4.1287,-4.1311,-4.1331,-4.1397,-4.1422,-4.1127,-4.1127,-4.1127,0,-4.1057,-4.1106,-4.1033,-4.1082,-4.1087,-4.0985,-4.1053,-4.1047,-4.1035,-4.1042,-4.0987,-4.1038,-4.102,-4.1104,-4.1149,-4.1153,-4.1171,-4.1117,-4.1313,-4.1332,-4.135,-4.1412,-4.1437,-4.1136,-4.1135,-4.1134,-4.1133,0,-4.1247,-4.1282,-4.1339,-4.133,-4.1342,-4.14,-4.1338,-4.1359,-4.131,-4.1275,-4.134,-4.1315,-4.1328,-4.1344,-4.1296,-4.1423,-4.1393,-4.1327,-4.1229,-4.1388,-4.1446,-4.1469,-4.1149,-4.1146,-4.1143,-4.1141,0,0,-4.1518,-4.1471,-4.1493,-4.1488,-4.1461,-4.1488,-4.1543,-4.1555,-4.1575,-4.1571,-4.1616,-4.1655,-4.1594,-4.1597,-4.1547,-4.1596,-4.1744,-4.1524,-4.1522,-4.1567,-4.1884,-4.1935,-4.1963,-4.17,-4.1704,-4.1708,-4.1886,0,-4.1691,-4.178,-4.1718,-4.1819,-4.1852,-4.1757,-4.1805,-4.1795,-4.1766,-4.1791,-4.1758,-4.1787,-4.1704,-4.1705,-4.1749,-4.1716,-4.1806,-4.1702,-4.1743,-4.1746,-4.1751,-4.1993,-4.2046,-4.2215,-4.1908,-4.1911,-4.1914,0,-4.1903,-4.1909,-4.2014,-4.1982,-4.1994,-4.2038,-4.2045,-4.207,-4.2057,-4.2032,-4.2037,-4.1976,-4.2029,-4.1934,-4.2007,-4.1938,-4.1952,-4.1939,-4.1944,-4.1945,-4.184,-4.2003,-4.2267,-4.2293,-4.1948,-4.1946,-4.1943,0,-4.2093,-4.2127,-4.2194,-4.2194,-4.2158,-4.2192,-4.2179,-4.2161,-4.2173,-4.218,-4.2187,-4.2201,-4.2209,-4.2221,-4.2167,-4.2102,-4.2249,-4.2148,-4.2231,-4.2233,-4.2266,-4.2265,-4.2538,-4.2274,-4.2274,-4.2273,-4.2273,0,-4.2292,-4.236,-4.2279,-4.2321,-4.2395,-4.2324,-4.24,-4.2377,-4.2363,-4.24,-4.2319,-4.2355,-4.228,-4.231,-4.2268,-4.2337,-4.234,-4.2323,-4.2311,-4.2331,-4.2333,-4.2339,-4.2326,-4.228,-4.2278,-4.2277,-4.2276,0,-4.2516,-4.2465,-4.2532,-4.2493,-4.2485,-4.2542,-4.251,-4.2547,-4.2513,-4.2561,-4.2568,-4.2515,-4.2546,-4.2492,-4.2516,-4.2488,-4.2585,-4.2554,-4.2589,-4.258,-4.2667,-4.2661,-4.2954,-4.2989,-4.2702,-4.2705,-4.2707,0,-4.2647,-4.2697,-4.2665,-4.2683,-4.2675,-4.2706,-4.2718,-4.2651,-4.2667,-4.2659,-4.2699,-4.2723,-4.2738,-4.2793,-4.2757,-4.2776,-4.2746,-4.2847,-4.2748,-4.2767,-4.2749,-4.2747,-4.2753,-4.2868,-4.2871,-4.2874,-4.2877,0,-4.2886,-4.2858,-4.2878,-4.2891,-4.2908,-4.2914,-4.2915,-4.2935,-4.2865,-4.2888,-4.2918,-4.2931,-4.2956,-4.2982,-4.2993,-4.298,-4.2919,-4.2908,-4.2929,-4.295,-4.2968,-4.2961,-4.2646,-4.2902,-4.2899,-4.2897,-4.2896,-4.2895,-4.3068,-4.3109,-4.3093,-4.3119,-4.3113,-4.3116,-4.315,-4.3121,-4.3145,-4.316,-4.3119,-4.3161,-4.3149,-4.3157,-4.3152,-4.3185,-4.314,-4.3169,-4.3177,-4.3185,-4.32,-4.2963,-4.3186,-4.3185,-4.3185,-4.3184,-4.3183,0,-4.3303,-4.3289,-4.3313,-4.3317,-4.3339,-4.3278,-4.3276,-4.3298,-4.3335,-4.333,-4.3347,-4.3384,-4.3409,-4.3377,-4.3397,-4.3429,-4.3401,-4.3437,-4.3434,-4.3433,-4.3238,-4.3219,-4.3459,-4.3459,-4.3459,-4.3459,-4.3459,-4.3459,-4.3428,-4.3495,-4.3466,-4.3531,-4.3515,-4.3555,-4.3559,-4.3563,-4.3558,-4.3603,-4.3624,-4.3602,-4.3586,-4.3605,-4.3627,-4.3616,-4.3628,-4.3674,-4.3655,-4.3473,-4.3446,-4.3421,-4.3402,-4.3677,-4.3678,-4.3847,-4.3848,-4.385]},{"header":{"parameterUnit":"m.s-1","parameterCategory":1,"la1":30.2991,"la2":30.254,"lo1":-89.0895,"lo2":-89.0444,"dy":0.0017,"dx":0.0017,"nx":28,"ny":28,"refTime":"2023-09-28T09:00:00:Z","depth":0,"parameterNumber":3,"parameterNumberName":"V-component_of_WINDS"},"data":[0,0,0,0,0,0,0,0,0,0,0,0,0,0,0,0,0,0,0,0,0,0,0,0,0,0,0,0,0,0,0,0,0,0,0,0,0,0,0,0,0,0,0,0,0,0,0,0,0,0,0,0,0,0,0,0,0,0,1.7982,1.7982,0,1.7944,1.7943,1.7943,1.797,1.7971,1.7972,1.7973,1.7925,1.7922,1.792,0,0,0,0,0,0,0,0,0,0,0,0,0,1.8071,1.8069,1.7982,1.7982,1.7981,1.7944,1.7943,1.7943,1.797,1.7971,1.7973,1.7974,1.7925,1.7923,1.792,0,0,0,0,0,0,0,0,0,0,0,0,0,1.8032,1.8069,1.7982,1.799,1.7991,1.7944,1.7943,1.7943,1.7969,1.7971,1.7973,1.7975,1.7926,1.7923,1.7919,1.786,0,0,1.7908,1.7906,0,0,0,0,0,0,0,0,1.8034,1.8029,1.799,1.799,1.799,1.7964,1.7957,1.7914,1.7969,1.7977,1.7973,1.7976,1.7935,1.7931,1.792,1.7857,1.7855,1.7908,1.7905,1.7904,1.7903,0,0,0,0,0,0,0,1.8037,1.8031,1.7967,1.7989,1.7989,1.7993,1.799,1.7949,1.7946,1.7976,1.7978,1.7974,1.7936,1.7923,1.7919,1.7855,1.7908,1.7905,1.7902,1.7901,1.7741,1.7739,0,0,0,0,0,0,1.804,1.8033,1.7968,1.7966,1.8018,1.799,1.7986,1.797,1.7947,1.7945,1.7972,1.7975,1.7928,1.7923,1.7917,1.7845,1.7904,1.79,1.7898,1.7743,1.7741,1.7739,0,0,0,0,0,0,1.8042,1.8034,1.7969,1.8,1.7992,1.7987,1.7968,1.7968,1.7956,1.7944,1.7943,1.796,1.793,1.7922,1.7874,1.7844,1.7899,1.7895,1.7746,1.7743,1.774,1.7701,0,0,0,0,0,0,1.8044,1.8035,1.8013,1.7999,1.799,1.7929,1.7966,1.7966,1.795,1.7954,1.7932,1.793,1.7931,1.788,1.7871,1.784,1.7893,1.7748,1.7744,1.7741,1.7704,1.7697,1.769,0,0,0,0,0,1.8048,1.8002,1.8012,1.8004,1.7964,1.7927,1.7922,1.7926,1.7948,1.7925,1.7918,1.7931,1.785,1.7875,1.7865,1.7832,1.775,1.7746,1.7741,1.7708,1.7698,1.769,0,0,0,0,0,0,1.8008,1.8,1.8011,1.796,1.7945,1.7932,1.7903,1.7916,1.7891,1.7895,1.7899,1.7894,1.7843,1.7834,1.7862,1.7773,1.7803,1.7796,1.7781,1.7772,1.7764,1.7766,1.789,0,0,0,0,0,1.7995,1.7968,1.7961,1.7917,1.7909,1.7908,1.7892,1.7897,1.788,1.7873,1.7862,1.7842,1.7812,1.7792,1.7764,1.7705,1.7699,1.7678,1.767,1.7664,1.7657,1.7624,1.7614,1.7724,1.7724,1.7724,0,0,1.7963,1.7956,1.7938,1.7909,1.7897,1.7868,1.7902,1.7869,1.7846,1.7866,1.7821,1.7813,1.7791,1.7738,1.7713,1.7727,1.7626,1.7658,1.7654,1.7649,1.7618,1.7608,1.7598,1.7721,1.7721,1.7722,0,0,1.7892,1.7885,1.7847,1.7836,1.782,1.7821,1.7812,1.7798,1.7794,1.775,1.7765,1.7737,1.7686,1.767,1.7655,1.7582,1.7591,1.7572,1.7532,1.75,1.7491,1.7483,1.7455,1.7445,1.7566,1.7566,1.7566,0,1.7854,1.7813,1.7825,1.7791,1.7777,1.78,1.776,1.7748,1.7722,1.771,1.7728,1.7666,1.7653,1.7595,1.7578,1.7566,1.7553,1.7573,1.7492,1.7484,1.7477,1.745,1.7439,1.7564,1.7564,1.7564,1.7564,0,1.7767,1.7738,1.7709,1.7688,1.7671,1.7634,1.7638,1.7619,1.7627,1.7625,1.7579,1.7565,1.7535,1.7522,1.7528,1.7465,1.7475,1.7493,1.7521,1.7464,1.7438,1.7428,1.756,1.7561,1.7562,1.7562,0,0,1.7664,1.7654,1.7642,1.7633,1.7619,1.7595,1.756,1.7534,1.7517,1.7499,1.7467,1.7426,1.7443,1.7426,1.7431,1.7403,1.7344,1.7424,1.7424,1.7407,1.7272,1.7256,1.7244,1.7353,1.7351,1.735,1.7273,0,1.759,1.7531,1.7542,1.7483,1.7455,1.7479,1.7447,1.7434,1.7432,1.7407,1.7404,1.7373,1.7399,1.7389,1.7363,1.7357,1.7316,1.7363,1.7319,1.7318,1.732,1.7231,1.7213,1.7141,1.7263,1.7261,1.726,0,1.7494,1.7477,1.7417,1.7409,1.7397,1.7369,1.7347,1.7324,1.7309,1.7309,1.7293,1.7303,1.7266,1.73,1.7246,1.7278,1.7262,1.7256,1.7253,1.7246,1.7282,1.7217,1.7119,1.7106,1.7245,1.7246,1.7247,0,1.7422,1.7384,1.7343,1.7335,1.7325,1.7305,1.7299,1.7287,1.7271,1.7251,1.724,1.7215,1.72,1.7179,1.7182,1.7207,1.7127,1.7161,1.7123,1.7123,1.7101,1.7102,1.6995,1.7097,1.7097,1.7098,1.7098,0,1.7336,1.7297,1.7311,1.7285,1.7242,1.7255,1.7211,1.7208,1.7198,1.717,1.7189,1.7162,1.7169,1.7142,1.7144,1.7098,1.7092,1.7089,1.7089,1.7085,1.7085,1.7071,1.7074,1.7095,1.7095,1.7096,1.7096,0,1.7245,1.7254,1.721,1.7207,1.7205,1.7173,1.7168,1.7143,1.7145,1.7109,1.7101,1.7102,1.7072,1.7074,1.7038,1.704,1.6983,1.699,1.6988,1.6988,1.6949,1.6951,1.6825,1.6809,1.6926,1.6925,1.6924,0,1.7187,1.7159,1.7153,1.7138,1.7132,1.7106,1.7092,1.7104,1.7087,1.7071,1.7047,1.7019,1.6996,1.6946,1.6941,1.6914,1.6919,1.6877,1.6914,1.6911,1.6914,1.6914,1.6911,1.6868,1.6867,1.6866,1.6865,0,1.7083,1.709,1.7069,1.705,1.7033,1.7018,1.7004,1.699,1.7001,1.6981,1.6952,1.6935,1.6902,1.6872,1.6847,1.6839,1.6852,1.6854,1.6843,1.6836,1.6835,1.6832,1.6964,1.6856,1.6856,1.6857,1.6858,1.6858,1.7005,1.698,1.6973,1.695,1.6942,1.693,1.6907,1.6907,1.6884,1.6859,1.6869,1.6835,1.6822,1.679,1.678,1.6752,1.6766,1.6751,1.6746,1.6741,1.6736,1.6844,1.6748,1.6748,1.6748,1.6748,1.6748,0,1.6898,1.6896,1.6875,1.6858,1.6839,1.686,1.6847,1.6829,1.68,1.6789,1.6768,1.6734,1.6707,1.6702,1.6676,1.6654,1.666,1.6646,1.6645,1.6643,1.6726,1.6736,1.6642,1.6642,1.6642,1.6642,1.6642,1.6642,1.684,1.68,1.6806,1.6762,1.676,1.6729,1.672,1.6708,1.6699,1.6662,1.6641,1.664,1.6631,1.6605,1.658,1.6579,1.6566,1.655,1.6551,1.6627,1.6637,1.6647,1.6657,1.6548,1.6548,1.647,1.647,1.6469]}]]